Weather History for Grand Marais Airport, MN

Change the Weather History Date:

Sunday, March 31, 2013

  Actual Average Record
Temperature  
Mean Temperature 24 °F -  
Max Temperature 33 °F 36 °F 48 °F (1999)
Min Temperature 15 °F 20 °F 6 °F (1997)
Degree Days  
Heating Degree Days 41    
Moisture  
Dew Point 12 °F    
Average Humidity 57    
Maximum Humidity 74    
Minimum Humidity 40    
Precipitation  
Precipitation 0.00 in - - ()
Sea Level Pressure  
Sea Level Pressure 29.67 in    
Wind  
Wind Speed 11 mph (WNW)    
Max Wind Speed 24 mph    
Max Gust Speed 36 mph    
Visibility 8 miles    
Events Snow    
Averages and records for this station are not official NWS values.
T = Trace of Precipitation, MM = Missing Value Source: NWS Daily Summary

Daily Weather History Graph

Daily Weather History Graph

Search for Another Location

Airport:

Trip Planner

Search our weather history database for the weather conditions in past years. The results will help you decide how hot, cold, wet, or windy it might be!

Date:

Astronomy

Mar. 31, 2013 Rise Set
Actual Time 6:41 AM CDT 7:30 PM CDT
Civil Twilight 6:10 AM CDT 8:01 PM CDT
Nautical Twilight 5:32 AM CDT 8:39 PM CDT
Astronomical Twilight 4:53 AM CDT 9:18 PM CDT
Moon No Moon Rise 9:10 AM CDT (3/31)
Length of Visible Light 13h 51m
Length of Day
12h 49m
Waning Gibbous, 77% of the Moon is Illuminated
Mar 31
Waning Gibbous
Apr 2
Last Quarter
Apr 10
New
Apr 18
First Quarter
Apr 25
Full

Hourly Weather History & Observations

Time (CDT) Temp. Windchill Dew Point Humidity Pressure Visibility Wind Dir Wind Speed Gust Speed Precip Events Conditions
12:13 AM 33.8 °F 27.7 °F 17.6 °F 52% 29.67 in 10.0 mi WNW 6.9 mph - N/A   Clear
12:34 AM 33.8 °F 27.7 °F 17.6 °F 52% 29.67 in 10.0 mi WNW 6.9 mph - N/A   Clear
12:53 AM 33.8 °F 27.7 °F 17.6 °F 52% 29.66 in 10.0 mi WNW 6.9 mph - N/A   Clear
1:13 AM 33.8 °F 28.6 °F 17.6 °F 52% 29.66 in 10.0 mi NW 5.8 mph - N/A   Clear
1:34 AM 32.0 °F 25.6 °F 17.6 °F 55% 29.66 in 10.0 mi WNW 6.9 mph - N/A   Clear
1:54 AM 32.0 °F 26.4 °F 17.6 °F 55% 29.65 in 10.0 mi NW 5.8 mph - N/A   Clear
2:14 AM 30.2 °F 23.4 °F 17.6 °F 60% 29.63 in 10.0 mi NW 6.9 mph - N/A   Clear
2:33 AM 30.2 °F 25.4 °F 17.6 °F 60% 29.63 in 10.0 mi NW 4.6 mph - N/A   Clear
2:54 AM 30.2 °F 25.4 °F 17.6 °F 60% 29.63 in 10.0 mi West 4.6 mph - N/A   Clear
3:14 AM 30.2 °F 24.3 °F 17.6 °F 60% - 10.0 mi WNW 5.8 mph - N/A   Clear
3:33 AM 30.2 °F 25.4 °F 17.6 °F 60% 29.61 in 10.0 mi NW 4.6 mph - N/A   Mostly Cloudy
3:53 AM 30.2 °F 25.4 °F 17.6 °F 60% 29.60 in 10.0 mi WNW 4.6 mph - N/A   Overcast
4:13 AM 30.2 °F 26.7 °F 17.6 °F 60% 29.60 in 10.0 mi West 3.5 mph - N/A   Mostly Cloudy
4:17 AM 30.2 °F - 17.6 °F 60% 29.60 in 10.0 mi Calm Calm - N/A   Mostly Cloudy
4:54 AM 30.2 °F 23.4 °F 17.6 °F 60% 29.59 in 10.0 mi West 6.9 mph - N/A   Mostly Cloudy
5:14 AM 30.2 °F 24.3 °F 19.4 °F 64% 29.58 in 10.0 mi West 5.8 mph - N/A   Overcast
5:34 AM 30.2 °F 20.8 °F 21.2 °F 69% 29.58 in 10.0 mi West 11.5 mph - N/A   Overcast
5:53 AM 28.4 °F 18.0 °F 21.2 °F 74% 29.56 in 10.0 mi West 12.7 mph 17.3 mph N/A   Overcast
6:14 AM 28.4 °F 20.4 °F 21.2 °F 74% 29.55 in 10.0 mi West 8.1 mph - N/A   Mostly Cloudy
6:34 AM 28.4 °F 19.1 °F 19.4 °F 69% 29.55 in 10.0 mi West 10.4 mph 17.3 mph N/A   Overcast
6:53 AM 26.6 °F 15.7 °F 19.4 °F 74% 29.55 in 10.0 mi West 12.7 mph 19.6 mph N/A   Scattered Clouds
7:13 AM 26.6 °F 18.2 °F 19.4 °F 74% 29.55 in 10.0 mi West 8.1 mph 17.3 mph N/A   Clear
7:34 AM 28.4 °F 16.6 °F 17.6 °F 64% 29.55 in 10.0 mi West 16.1 mph 23.0 mph N/A   Clear
7:53 AM 28.4 °F 18.5 °F 15.8 °F 59% 29.55 in 10.0 mi West 11.5 mph 20.7 mph N/A   Clear
8:14 AM 28.4 °F 16.6 °F 17.6 °F 64% 29.55 in 10.0 mi West 16.1 mph 23.0 mph N/A   Scattered Clouds
8:34 AM 28.4 °F 16.6 °F 17.6 °F 64% 29.55 in 10.0 mi WNW 16.1 mph 27.6 mph N/A   Mostly Cloudy
8:53 AM 28.4 °F 17.0 °F 17.6 °F 64% 29.54 in 10.0 mi WNW 15.0 mph 24.2 mph N/A   Mostly Cloudy
9:13 AM 28.4 °F 17.0 °F 15.8 °F 59% 29.54 in 10.0 mi WNW 15.0 mph 27.6 mph N/A   Mostly Cloudy
9:33 AM 28.4 °F 17.0 °F 17.6 °F 64% 29.55 in 2.5 mi WNW 15.0 mph 27.6 mph N/A Snow Light Snow
9:53 AM 28.4 °F 18.0 °F 17.6 °F 64% 29.55 in 5.0 mi West 12.7 mph 32.2 mph N/A Snow Light Snow
10:14 AM 28.4 °F 17.0 °F 19.4 °F 69% 29.55 in 1.5 mi WNW 15.0 mph 25.3 mph N/A Snow Light Snow
10:34 AM 28.4 °F 14.7 °F 19.4 °F 69% 29.56 in 0.8 mi WNW 21.9 mph 28.8 mph N/A Snow Light Snow
10:53 AM 28.4 °F 17.0 °F 17.6 °F 64% 29.56 in 3.0 mi WNW 15.0 mph 25.3 mph N/A Snow Light Snow
11:13 AM 28.4 °F 16.6 °F 15.8 °F 59% 29.57 in 7.0 mi WNW 16.1 mph 35.7 mph N/A   Mostly Cloudy
11:34 AM 28.4 °F 17.0 °F 15.8 °F 59% 29.58 in 2.5 mi WNW 15.0 mph 27.6 mph N/A Snow Light Snow
11:54 AM 26.6 °F 12.4 °F 15.8 °F 64% 29.60 in 3.0 mi NW 21.9 mph 28.8 mph N/A Snow Light Snow
12:13 PM 24.8 °F 10.0 °F 15.8 °F 69% 29.61 in 2.0 mi NW 21.9 mph 32.2 mph N/A Snow Light Snow
12:33 PM 24.8 °F 10.7 °F 12.2 °F 59% 29.62 in 1.5 mi NW 19.6 mph 31.1 mph N/A Snow Light Snow
12:54 PM 24.8 °F 11.9 °F 12.2 °F 59% 29.62 in 2.5 mi NW 16.1 mph 31.1 mph N/A Snow Light Snow
1:14 PM 26.6 °F 13.4 °F 10.4 °F 51% 29.64 in 7.0 mi NW 18.4 mph 31.1 mph N/A   Mostly Cloudy
1:34 PM 24.8 °F 10.0 °F 14.0 °F 64% 29.65 in 0.8 mi NW 21.9 mph 31.1 mph N/A Snow Light Snow
1:54 PM 24.8 °F 11.5 °F 15.8 °F 69% 29.66 in 0.5 mi NW 17.3 mph 28.8 mph N/A Snow Light Snow
2:13 PM 24.8 °F 10.7 °F 12.2 °F 59% 29.67 in 2.5 mi NW 19.6 mph 28.8 mph N/A Snow Light Snow
2:34 PM 26.6 °F 13.1 °F 10.4 °F 51% 29.68 in 3.0 mi NW 19.6 mph 35.7 mph N/A Snow Light Snow
2:53 PM 24.8 °F 12.9 °F 8.6 °F 50% 29.69 in 10.0 mi NW 13.8 mph 33.4 mph N/A   Mostly Cloudy
3:13 PM 24.8 °F 12.4 °F 8.6 °F 50% 29.70 in 10.0 mi NW 15.0 mph 26.5 mph N/A   Mostly Cloudy
3:34 PM 26.6 °F 14.3 °F 6.8 °F 43% 29.71 in 10.0 mi WNW 16.1 mph 28.8 mph N/A   Scattered Clouds
3:54 PM 24.8 °F 11.5 °F 6.8 °F 46% 29.71 in 10.0 mi NW 17.3 mph 25.3 mph N/A   Scattered Clouds
4:13 PM 24.8 °F 12.9 °F 3.2 °F 40% 29.72 in 10.0 mi WNW 13.8 mph 25.3 mph N/A   Scattered Clouds
4:33 PM 24.8 °F 12.9 °F 3.2 °F 40% 29.73 in 10.0 mi WNW 13.8 mph 27.6 mph N/A   Scattered Clouds
4:53 PM 24.8 °F 13.4 °F 10.4 °F 54% 29.73 in 1.8 mi NW 12.7 mph 27.6 mph N/A Snow Snow
5:13 PM 23.0 °F 10.6 °F 6.8 °F 50% 29.74 in 10.0 mi NW 13.8 mph 28.8 mph N/A   Scattered Clouds
5:33 PM 24.8 °F 12.4 °F 5.0 °F 43% 29.75 in 10.0 mi WNW 15.0 mph 29.9 mph N/A   Scattered Clouds
5:54 PM 21.2 °F 6.8 °F 8.6 °F 58% 29.77 in 2.5 mi WNW 17.3 mph 26.5 mph N/A Snow Snow
6:13 PM 21.2 °F 6.0 °F 5.0 °F 50% 29.78 in 10.0 mi NW 19.6 mph 24.2 mph N/A   Mostly Cloudy
6:34 PM 19.4 °F 2.1 °F 6.8 °F 58% 29.79 in 5.0 mi NW 24.2 mph 29.9 mph N/A   Haze
7:14 PM 19.4 °F 7.9 °F 3.2 °F 49% 29.80 in 10.0 mi NW 10.4 mph - N/A   Clear
7:33 PM 19.4 °F 5.5 °F 3.2 °F 49% 29.81 in 10.0 mi NW 15.0 mph 21.9 mph N/A   Mostly Cloudy
7:54 PM 19.4 °F 7.2 °F 3.2 °F 49% 29.82 in 10.0 mi NW 11.5 mph 18.4 mph N/A   Mostly Cloudy
8:14 PM 19.4 °F 7.9 °F 3.2 °F 49% 29.83 in 10.0 mi WNW 10.4 mph 16.1 mph N/A   Mostly Cloudy
8:34 PM 17.6 °F 2.2 °F 3.2 °F 53% 29.84 in 7.0 mi NW 17.3 mph 25.3 mph N/A   Mostly Cloudy
8:54 PM 17.6 °F 5.7 °F 3.2 °F 53% 29.84 in 10.0 mi NW 10.4 mph 19.6 mph N/A   Mostly Cloudy
9:13 PM 17.6 °F 2.7 °F 1.4 °F 49% 29.85 in 10.0 mi NW 16.1 mph 23.0 mph N/A   Scattered Clouds
9:33 PM 17.6 °F 3.2 °F 1.4 °F 49% 29.86 in 10.0 mi NW 15.0 mph 24.2 mph N/A   Clear
9:53 PM 15.8 °F 0.9 °F 1.4 °F 53% 29.86 in 10.0 mi NW 15.0 mph 24.2 mph N/A   Clear
10:13 PM 15.8 °F 0.9 °F -0.4 °F 49% 29.86 in 10.0 mi WNW 15.0 mph 24.2 mph N/A   Scattered Clouds
10:33 PM 15.8 °F 0.9 °F -0.4 °F 49% 29.86 in 10.0 mi NNW 15.0 mph 28.8 mph N/A   Clear
10:54 PM 15.8 °F 1.4 °F -0.4 °F 49% 29.87 in 10.0 mi NW 13.8 mph 21.9 mph N/A   Clear
11:13 PM 15.8 °F 1.4 °F -0.4 °F 49% 29.87 in 10.0 mi NNW 13.8 mph 21.9 mph N/A   Scattered Clouds
11:33 PM 15.8 °F 0.9 °F -0.4 °F 49% 29.87 in 10.0 mi NW 15.0 mph 28.8 mph N/A   Mostly Cloudy